Wind from 060 at 10 knots

Air temperature 11.0° C
Dewpoint -4.0° C

Last reported at 2014-Apr-23 18:20 UTC.
Time now 2014-Apr-24 02:18 UTC

Location: N 58°19' E 012°21'.
View on Google Maps.

See reports from other nearby stations

Tides Stations Pressure Air Temp Water Temp Dewpoint Dewpoint depression Visibility Wind Speed Wind Dir Waves Ship positions

  
sailing weather and tide predictions

TROLLHATTAN PRIVATE weather

date/time (UTC)wind fromknots sea level pressurealtimeterstation pressurevisibilityair tempwater tempwave heightnotes
2014-Apr-23 18:20 060 10 11.0
2014-Apr-23 17:50 060 12 12.0
2014-Apr-23 17:20 070 14 13.0
2014-Apr-23 16:50 080 15 13.0
2014-Apr-23 16:20 070 15 14.0
2014-Apr-23 15:50 070 14 14.0
2014-Apr-23 15:20 090 14 gusting 24 14.0
2014-Apr-23 14:50 050 14 14.0
2014-Apr-23 14:20 020 8 14.0
2014-Apr-23 13:20 040 14 14.0
2014-Apr-23 12:50 040 15 14.0
2014-Apr-23 12:20 100 17 14.0
2014-Apr-23 11:50 050 18 14.0
2014-Apr-23 11:20 060 17 gusting 27 13.0
2014-Apr-23 10:50 060 20 gusting 30 13.0
2014-Apr-23 10:20 060 14 gusting 24 13.0
2014-Apr-23 09:50 040 18 gusting 25 13.0
2014-Apr-23 09:20 090 16 13.0
2014-Apr-23 08:50 060 16 gusting 26 12.0
2014-Apr-23 08:20 060 12 gusting 24 11.0
2014-Apr-23 07:50 060 12 11.0
2014-Apr-23 07:20 060 12 10.0
2014-Apr-23 06:50 040 12 9.0
2014-Apr-23 06:20 030 10 9.0
2014-Apr-23 05:50 030 9 8.0
2014-Apr-23 05:20 040 10 8.0
2014-Apr-23 04:50 030 8 8.0
2014-Apr-23 04:20 030 7 8.0
2014-Apr-23 03:50 030 6 9.0
2014-Apr-22 15:50 030 7 16.0
2014-Apr-22 14:50 020 12 16.0
2014-Apr-22 14:20 030 9 17.0
2014-Apr-22 13:50 020 9 15.0
2014-Apr-22 13:20 020 9 15.0
2014-Apr-22 12:50 020 9 15.0
2014-Apr-22 12:20 020 11 15.0
2014-Apr-22 11:50 010 10 15.0
2014-Apr-22 11:20 020 9 14.0
2014-Apr-22 10:50 020 10 14.0
2014-Apr-22 10:20 010 11 15.0
2014-Apr-22 09:50 350 11 14.0
2014-Apr-22 09:20 010 13 13.0
2014-Apr-22 08:50 360 12 12.0
2014-Apr-22 08:20 360 12 12.0
2014-Apr-22 07:50 010 10 11.0
2014-Apr-22 07:20 020 11 11.0
2014-Apr-22 06:50 030 9 10.0
2014-Apr-22 06:20 010 10 9.0
2014-Apr-22 05:50 360 9 9.0
2014-Apr-22 05:20 010 11 8.0
2014-Apr-22 04:50 010 7 8.0
2014-Apr-22 04:20 360 5 7.0
2014-Apr-22 03:50 340 7 7.0